Terminal Aerodrome Forecast
Issued by NWS New Orleans/Baton Rouge, LA

Home | Current Version | Previous Version | Text Only | Print | Product List | Glossary On
Versions: 1 2 3 4 5 6 7 8 9 10 11 12 13 14 15
000
FTUS44 KLIX 020100 AAA
TAFBTR
TAF AMD
KBTR 020132Z 0202/0224 10007KT 2SM +TSRA BR OVC005CB
      TEMPO 0202/0203 4SM -RA BR BKN002
     FM020300 12006KT 1SM BR BKN005
     FM020600 13005KT 1/2SM FG OVC003
     FM021500 12005KT 2SM BR OVC003
     FM021800 13005KT 5SM BR OVC005=

USA.gov is the U.S. government's official web portal to all federal, state and local government web resources and services.